Curacao, Curacao

5:34 AM AST on May 28, 2017 (GMT -0400)
Willemstad-Hato International

Weather History for TNCC - January, 2014

Change the Weather History Date:

Monday, January 6, 2014

  Actual Average Record
Temperature  
Mean Temperature 76 °F -  
Max Temperature 84 °F 84 °F 87 °F (1998)
Min Temperature 68 °F 75 °F 68 °F (2014)
Cooling Degree Days 11    
Growing Degree Days 26 (Base 50)    
Moisture  
Dew Point 68 °F    
Average Humidity 78    
Maximum Humidity 88    
Minimum Humidity 56    
Precipitation  
Precipitation 0.04 in 0.06 in - ()
Sea Level Pressure  
Sea Level Pressure 29.91 in    
Wind  
Wind Speed 11 mph ()    
Max Wind Speed 18 mph    
Max Gust Speed -    
Visibility 8.3 miles    
Events      
Averages and records for this station are not official NWS values.
T = Trace of Precipitation, MM = Missing Value Source: Averaged Metar Reports

Daily Weather History Graph

Daily Weather History Graph

Search for Another Location

Airport or City:

Trip Planner

Search our weather history database for the weather conditions in past years. The results will help you decide how hot, cold, wet, or windy it might be!

Date:

Astronomy

Jan. 06, 2014 Rise Set
Actual Time 6:58 AM AST 6:25 PM AST
Civil Twilight 6:35 AM AST 6:47 PM AST
Nautical Twilight 6:09 AM AST 7:14 PM AST
Astronomical Twilight 5:43 AM AST 7:40 PM AST
Moon 11:15 AM AST (1/6) 11:44 PM AST (1/6)
Length of Visible Light 12h 12m
Length of Day
11h 26m
Waxing Crescent, 34% of the Moon is Illuminated
Jan 6
Waxing Crescent
Jan 7
First Quarter
Jan 16
Full
Jan 24
Last Quarter
Jan 30
New

Hourly Weather History & Observations

Time (AST) Temp. Heat Index Dew Point Humidity Pressure Visibility Wind Dir Wind Speed Gust Speed Precip Events Conditions
12:00 AM 73.4 °F - 68.0 °F 83% 29.95 in 6.2 mi ESE 13.8 mph - N/A   Partly Cloudy
1:00 AM 73.4 °F - 68.0 °F 83% 29.92 in 6.2 mi ESE 13.8 mph - N/A   Partly Cloudy
2:00 AM 73 °F - 67 °F 76% 29.91 in 16 mi SE 8.1 mph - -   Scattered Clouds
2:00 AM 73.4 °F - 66.2 °F 78% 29.89 in 6.2 mi ESE 10.4 mph - N/A   Partly Cloudy
3:00 AM 73.4 °F - 68.0 °F 83% 29.89 in 6.2 mi ESE 8.1 mph - N/A   Scattered Clouds
4:00 AM 71.6 °F - 68.0 °F 88% 29.89 in 6.2 mi ESE 9.2 mph - N/A   Scattered Clouds
5:00 AM 70 °F - 66 °F 85% 29.90 in 16 mi SSE 4.6 mph - -   Partly Cloudy
5:00 AM 69.8 °F - 66.2 °F 88% 29.89 in 6.2 mi SE 6.9 mph - N/A   Scattered Clouds
6:00 AM 69.8 °F - 66.2 °F 88% 29.89 in 6.2 mi ESE 8.1 mph - N/A   Scattered Clouds
7:00 AM 68.0 °F - 64.4 °F 88% 29.92 in 6.2 mi ESE 10.4 mph - N/A   Partly Cloudy
8:00 AM 71 °F - 66 °F 81% 29.95 in 16 mi SE 9.2 mph - -   Scattered Clouds
8:00 AM 71.6 °F - 66.2 °F 83% 29.95 in 6.2 mi ESE 10.4 mph - N/A   Partly Cloudy
9:00 AM 75.2 °F - 68.0 °F 78% 29.98 in 6.2 mi ESE 12.7 mph - N/A   Partly Cloudy
10:00 AM 77.0 °F - 68.0 °F 74% 29.98 in 6.2 mi ESE 16.1 mph - N/A   Scattered Clouds
11:00 AM 78 °F - 69 °F 67% 29.97 in 16 mi ESE 15.0 mph - -   Partly Cloudy
11:00 AM 77.0 °F - 69.8 °F 78% 29.98 in 6.2 mi East 15.0 mph - N/A   Scattered Clouds
12:00 PM 80.6 °F 83.9 °F 69.8 °F 70% 29.95 in 6.2 mi East 16.1 mph - N/A   Scattered Clouds
1:00 PM 82.4 °F 86.3 °F 69.8 °F 66% 29.92 in 6.2 mi ESE 15.0 mph - N/A   Scattered Clouds
2:00 PM 83 °F - 70 °F 56% 29.90 in 16 mi ESE 18.4 mph - -   Partly Cloudy
2:00 PM 84.2 °F 88.4 °F 69.8 °F 62% 29.89 in 6.2 mi ESE 16.1 mph - N/A   Scattered Clouds
3:00 PM 82.4 °F 86.3 °F 69.8 °F 66% 29.86 in 6.2 mi East 16.1 mph - N/A   Scattered Clouds
4:00 PM 80.6 °F 83.9 °F 69.8 °F 70% 29.86 in 6.2 mi East 15.0 mph - N/A   Scattered Clouds
5:00 PM 78.8 °F - 69.8 °F 74% 29.86 in 6.2 mi ESE 13.8 mph - N/A   Partly Cloudy
6:00 PM 77.0 °F - 69.8 °F 78% 29.86 in 6.2 mi East 11.5 mph - N/A   Partly Cloudy
7:00 PM 75.2 °F - 69.8 °F 83% 29.86 in 6.2 mi East 12.7 mph - N/A   Partly Cloudy
8:00 PM 75 °F - 69 °F 75% 29.89 in 16 mi East 11.5 mph - -   Scattered Clouds
8:00 PM 75.2 °F - 68.0 °F 78% 29.89 in 6.2 mi East 12.7 mph - N/A   Partly Cloudy
9:00 PM 73.4 °F - 68.0 °F 83% 29.92 in 6.2 mi East 13.8 mph - N/A   Partly Cloudy
10:00 PM 73.4 °F - 68.0 °F 83% 29.92 in 6.2 mi ESE 9.2 mph - N/A   Partly Cloudy
11:00 PM 73 °F - 67 °F 78% 29.93 in 12 mi SE 9.2 mph - -   Haze
11:00 PM 73.4 °F - 68.0 °F 83% 29.92 in 6.2 mi ESE 9.2 mph - N/A   Partly Cloudy